www.pogodaiklimat.ru

Погода и климат >> Архив погоды >> Сенегал >> Podor


ПОГОДА в Podor

  • Прогноз погоды в Podor
  • Монитор погоды в Podor
  • Климат города

АРХИВ ПОГОДЫ в Podor

Время (UTC), дата Ветер
(напр.,м/с)
 
Видим.   Явления Облачность Т
(С)
Тd
(С)
f
(%)
Тe
(С)
Тes
(С)
Комфортность P
(гПа)
Po
(гПа)
Тmin
(С)
Tmax
(С)
R
(мм)
R24
(мм)
S
(см)
03 12.12 С 1 10 км ясно +20.0 +3.1 33 +21 +21 комфорт 1013.7 1012.9
06 12.12 С 1 10 км ясно +18.0 +2.9 36 +19 +19 1014.0 1013.2 +16.0
09 12.12 СВ 1 10 км ясно +19.0 +2.7 34 +20 +23 1015.2 1014.4
15 12.12 В 1 10 км 3/0
[Ci sp]
+34.8 +2.5 13 +32 +42 жарко 1012.4 1011.6
18 12.12 СВ 1 10 км 1/0
[Ci sp]
+32.0 +3.0 16 +29 +30 жарко 1012.6 1011.8 +35.3
21 12.12 С 1 10 км ясно +25.5 +4.9 27 +25 +25 комфорт 1014.5 1013.7
00 13.12 С 1 10 км ясно +23.8 -1.1 19 +22 +22 комфорт 1015.2 1014.4
06 13.12 С 1 10 км ясно +20.5 -0.6 24 +22 +22 комфорт 1015.0 1014.2 +19.5
09 13.12 СВ 1 10 км 6/0
[Ci sp]
+20.4 +1.1 28 +22 +24 комфорт 1016.3 1015.5
12 13.12 СВ 1 10 км 5/0
[Ci sp]
+30.0 +1.8 16 +27 +40 жарко 1016.6 1015.8
15 13.12 В 3 10 км 5/0
[Ci sp]
+34.3 +2.1 13 +31 +38 жарко 1014.3 1013.5
18 13.12 В 1 10 км 4/0
[Ac cast]
+31.5 +2.1 15 +29 +29 жарко 1013.5 1012.7 +34.8
21 13.12 СВ 1 10 км 4/0
[Ac cast]
+27.9 +3.2 20 +26 +26 жарко 1015.6 1014.8
00 14.12 СВ 1 10 км 5/0
[Ac cast]
+26.0 +3.9 24 +25 +25 комфорт 1016.8 1016.0
03 14.12 СВ 1 10 км 3/0
[Ac cast]
+23.6 +3.3 27 +23 +23 комфорт 1015.7 1014.9
06 14.12 СВ 1 10 км ясно +21.5 +3.1 30 +22 +22 комфорт 1016.5 1015.7 +21.0
09 14.12 СВ 1 10 км 3/0
[Ac cast]
+22.5 +3.6 29 +22 +25 комфорт 1017.7 1016.9
12 14.12 СВ 2 10 км 3/0
[Ac trans]
+31.0 +4.1 18 +29 +39 жарко 1017.8 1017.0
15 14.12 СВ 2 10 км 4/0
[Ac cast]
+34.0 +3.5 15 +31 +38 жарко 1015.3 1014.5
18 14.12 СВ 1 10 км 8/0
[Ac cast]
+30.8 +2.5 16 +28 +28 жарко 1015.4 1015.0 +34.5
21 14.12 С 1 10 км 8/0
[Ac cast]
+27.5 +3.4 21 +26 +26 жарко 1017.5 1016.7
00 15.12 С 1 10 км {дождь} 5/0
[Ac cast]
+26.0 +0.6 19 +24 +24 комфорт 1018.5 1017.7 0.0
03 15.12 С 1 10 км ясно +23.0 +1.8 25 +22 +22 комфорт 1017.8 1017.0
06 15.12 С 1 10 км 3/0
[Ci sp]
+22.0 +1.7 26 +22 +22 комфорт 1018.5 1017.7 +21.5
09 15.12 СВ 1 10 км 8/0
[Ac cast]
+22.0 +1.3 25 +22 +23 комфорт 1020.0 1019.2
12 15.12 СВ 1 10 км 6/0
[Ac cast]
+29.0 +1.5 17 +27 +35 жарко 1020.0 1019.2
15 15.12 СВ 1 10 км в посл. час дождь 9/0
[Ac As]
+29.6 +1.3 16 +27 +31 жарко 1017.8 1017.0
18 15.12 СВ 1 10 км в посл. час дождь 9/0
[Ac As]
+28.0 +1.5 18 +26 +26 жарко 1018.4 1017.6 +30.1 0.0
21 15.12 СВ 1 10 км в посл. час дождь 9/0
[Ac As]
+26.5 +4.4 24 +25 +25 комфорт 1019.5 1018.7
00 16.12 З 1 10 км {дождь} 9/0
[Ac cast]
+23.5 +4.1 28 +23 +23 комфорт 1018.8 1018.0 0.0
03 16.12 СВ 1 10 км 6/0
[Ac cast]
+22.0 +4.9 33 +22 +22 комфорт 1017.8 1017.0
06 16.12 СВ 1 10 км 8/0
[Ac cast]
+20.0 +4.6 36 +22 +22 комфорт 1017.8 1017.0 +19.5
09 16.12 штиль 0 10 км 6/0
[Ac cast]
+21.0 +5.1 35 +21 +23 комфорт 1018.6 1017.8
12 16.12 СВ 1 10 км {дождь} 6/0
[Ac cast]
+30.0 +6.4 23 +29 +37 жарко 1018.4 1017.6 0.0
15 16.12 СВ 1 10 км 6/0
[Ac cast]
+33.2 +5.9 18 +31 +37 жарко 1015.5 1014.7
18 16.12 СВ 1 10 км 3/0
[Ac cast]
+31.8 +5.6 19 +30 +30 жарко 1015.0 1014.5 +34.5 0.0
21 16.12 СВ 1 10 км ясно +24.0 +6.8 33 +24 +24 комфорт 1016.4 1015.6
00 17.12 штиль 0 10 км ясно +21.1 +5.5 36 +22 +22 комфорт 1016.8 1016.0
03 17.12 СВ 1 10 км ясно +20.0 +4.9 37 +22 +22 комфорт 1015.6 1014.8
06 17.12 С 1 10 км ясно +18.5 +3.7 37 +20 +21 1015.9 1015.1 +18.0
09 17.12 СВ 1 10 км 4/0
[Ac trans Ci sp]
+20.8 +2.2 29 +22 +24 комфорт 1017.4 1016.6
12 17.12 СВ 1 10 км 3/0
[Ci sp]
+29.5 +3.4 19 +27 +41 жарко 1016.8 1016.0
15 17.12 СВ 1 10 км 1/0
[Ci sp]
+33.5 +5.6 18 +31 +42 жарко 1014.0 1013.2
18 17.12 СВ 1 10 км 4/0
[Ci sp]
+31.5 +6.1 20 +30 +30 жарко 1013.4 1012.6 +34.5
21 17.12 С 1 10 км ясно +25.3 +3.9 25 +24 +24 комфорт 1015.7 1014.9
00 18.12 СВ 1 10 км ясно +23.5 +2.1 25 +23 +23 комфорт 1016.8 1016.0
03 18.12 СВ 1 10 км ясно +19.6 +3.7 35 +21 +21 комфорт 1015.8 1015.0
06 18.12 СВ 1 10 км ясно +17.5 +2.1 36 +19 +19 1015.2 1014.4 +17.0
09 18.12 СВ 1 10 км ясно +19.4 +2.0 31 +21 +24 комфорт 1017.2 1016.4
12 18.12 СВ 1 10 км 4/0
[Ci sp]
+29.5 +4.4 20 +28 +41 жарко 1016.6 1015.8
15 18.12 СВ 1 10 км 6/0
[Ci sp]
+34.0 +3.8 15 +31 +41 жарко 1013.5 1012.7
18 18.12 СВ 1 10 км 4/0
[Ci sp]
+31.0 +4.3 18 +29 +29 жарко 1013.4 1012.6 +35.0
21 18.12 СВ 1 10 км 3/0
[Ci sp]
+25.0 +4.7 27 +24 +24 комфорт 1015.8 1015.0

 

Местоположение метеостанции Podor (Сенегал): широта 16.65 долгота -14.96 высота над уровнем моря 7 м.

В архиве по умолчанию представлена погода в Podor за последнюю неделю. Архивные данные за месяц целиком и за предыдущие месяцы, начиная с января 2011 года, Вы можете получить, выбрав интересующий диапазон дат из раскрывающегося списка и нажав кнопку "Ввод!".


*Определитесь, кто Вы:
робот инопланетянин человек

Внимание! Время в таблицах - всемирное. Для получения местного времени необходимо прибавить поправку, которая в Podor равна 0 ч.

Смотрите также архив погоды в соседних городах и на ближайших метеорологических станциях:

Погода в Rosso (Мавритания) (92 км)
Погода в Boutilimit (Мавритания) (102 км)
Погода в Linguere (Сенегал) (142 км)
Погода в Kaedi (Мавритания) (164 км)
Погода в Saint-Louis (Сенегал) (172 км)
Погода в Nouakchott (Мавритания) (192 км)
Погода в Matam (Сенегал) (214 км)
Погода в Diourbel (Сенегал) (261 км)
Погода в Kaolack (Сенегал) (304 км)
Погода в Kauur (Гамбия) (329 км)

Пояснения к столбцам:

Ветер - указаны скорость ветра в м/с - средняя за 10 мин, порывы в срок и между сроками (в фигурных скобках) и направление, откуда дует ветер: С - северный, СВ - северо-восточный, В - восточный, ЮВ - юго-восточный, Ю - южный, ЮЗ - юго-западный, З - западный, СЗ - северо-западный.
Видимость - горизонтальная дальность видимости в метрах или километрах. При видимости от 1 до 10 км при отсутствии осадков обычно наблюдается дымка, при ухудшении видимости до 1 км и менее - туман. В сухую погоду видимость может ухудшаться дымом, пылью или мглою.
Явления - указаны атмосферные явления, наблюдавшиеся в срок или в последний час перед сроком; фигурными скобками обозначены явления, наблюдавшиеся между сроками (за 1-3 часа до срока); квадратными скобками обозначены град или гололедные отложения с указанием их диаметра в мм.
Облачность - указаны через наклонную черту общая и нижняя облачность в баллах и высота нижней границы облаков в метрах; квадратными скобками обозначены формы облаков: Ci - перистые, Cs - перисто-слоистые, Cc - перисто-кучевые, Ac - высококучевые, As - высокослоистые, Sc - слоисто-кучевые, Ns - слоисто-дождевые, Cu - кучевые, Cb - кучево-дождевые. Подробнее классификацию облаков см. в Атласе облаков (PDF).
T - Температура воздуха - температура, измеренная на высоте 2 м над землей.
Td - Температура точки росы - температура, при понижении до которой содержащийся в воздухе водяной пар достигнет насыщения.
f - Относительная влажность воздуха - влажноcть воздуха, измеренная на высоте 2 м над землей.
Te - Эффективная температура - температура, которую ощущает одетый по сезону человек в тени. Характеристика душности погоды. При расчете учитывается влияние влажности воздуха и скорости ветра на теплоощущения человека.
Tes - Эффективная температура на солнце - температура, которую ощущает человек, с поправкой на солнечный нагрев. Характеристика знойности погоды. Зависит от высоты солнца над горизонтом, облачности и скорости ветра. Ночью, в пасмурную погоду, а также при ветре 12 м/с и более поправка равна нулю.
P - Атмосферное давление - приведенное к уровню моря атмосферное давление.
Po - Атмосферное давление - измеренное на уровне метеостанции атмосферное давление.
Tmin - Минимальная температура - минимум температуры воздуха на высоте 2 м над землей.
Tmax - Максимальная температура - максимум температуры воздуха на высоте 2 м над землей.
R - Количество осадков - Количество выпавших осадков за период времени, мм. При наведении курсора мыши на число - период времени, за который выпало указанное количество осадков.
R24 - Количество осадков - Количество выпавших осадков за 24 часа, мм.
S - Снежный покров - Высота снежного покрова, см. При наведении курсора мыши на число - состояние снежного покрова и степень покрытия местности в баллах.